Change the Weather History Date:

Wednesday, June 26, 2013

  Actual Average Record
Temperature  
Mean Temperature 76 °F 71 °F  
Max Temperature 96 °F 86 °F 107 °F (2012)
Min Temperature 56 °F 57 °F 38 °F (1958)
Degree Days  
Heating Degree Days 0 1  
Month to date heating degree days 47 51  
Since 1 June heating degree days 47 51  
Since 1 July heating degree days 6763 6686  
Cooling Degree Days 11 7  
Month to date cooling degree days 150 108  
Year to date cooling degree days 198 136  
Since 1 June cooling degree days 150 108  
Growing Degree Days 26 (Base 50)    
Moisture  
Dew Point 61 °F    
Average Humidity 61    
Maximum Humidity 93    
Minimum Humidity 28    
Precipitation  
Precipitation 0.00 in 0.10 in 0.87 in (2008)
Month to date precipitation 1.95 3.02  
Year to date precipitation 8.11 10.46  
Snow  
Snow 0.00 in 0.00 in 0.00 in ()
Month to date snowfall T 0.0  
Since 1 June snowfall T 0.0  
Since 1 July snowfall 30.2 28.5  
Snow Depth 0.00 in    
Sea Level Pressure  
Sea Level Pressure 29.85 in    
Wind  
Wind Speed 4 mph (SE)    
Max Wind Speed 9 mph    
Max Gust Speed 14 mph    
Visibility 10 miles    
Events      
T = Trace of Precipitation, MM = Missing Value Source: NWS Daily Summary

Daily Weather History Graph

Daily Weather History Graph

Search for Another Location

Airport or City:

Trip Planner

Search our weather history database for the weather conditions in past years. The results will help you decide how hot, cold, wet, or windy it might be!

Date:

Astronomy

Jun. 26, 2013 Rise Set
Actual Time 6:11 AM CDT 9:19 PM CDT
Civil Twilight 5:38 AM CDT 9:53 PM CDT
Nautical Twilight 4:55 AM CDT 10:36 PM CDT
Astronomical Twilight 4:03 AM CDT 11:27 PM CDT
Moon 11:41 PM CDT (6/26) 10:07 AM CDT (6/26)
Length of Visible Light 16h 14m
Length of Day
15h 07m
Waning Gibbous, 85% of the Moon is Illuminated
Jun 26
Waning Gibbous
Jun 29
Last Quarter
Jul 8
New
Jul 15
First Quarter
Jul 22
Full

Hourly Weather History & Observations

Time (CDT) Temp. Heat Index Dew Point Humidity Pressure Visibility Wind Dir Wind Speed Gust Speed Precip Events Conditions
12:53 AM 64.0 °F - 57.9 °F 80% 29.78 in 10.0 mi Calm Calm - N/A   Clear
1:53 AM 63.0 °F - 59.0 °F 87% 29.80 in 10.0 mi Calm Calm - N/A   Clear
2:53 AM 62.1 °F - 57.9 °F 86% 29.80 in 10.0 mi Calm Calm - N/A   Clear
3:53 AM 61.0 °F - 57.9 °F 90% 29.81 in 10.0 mi Calm Calm - N/A   Clear
4:53 AM 57.9 °F - 55.0 °F 90% 29.84 in 10.0 mi West 5.8 mph - N/A   Clear
5:53 AM 57.9 °F - 55.9 °F 93% 29.85 in 10.0 mi WNW 3.5 mph - N/A   Clear
6:53 AM 59.0 °F - 55.9 °F 90% 29.87 in 10.0 mi Calm Calm - N/A   Clear
7:53 AM 64.9 °F - 59.0 °F 81% 29.89 in 10.0 mi Calm Calm - N/A   Clear
8:53 AM 71.1 °F - 62.1 °F 73% 29.90 in 10.0 mi Calm Calm - N/A   Clear
9:53 AM 77.0 °F - 59.0 °F 54% 29.90 in 10.0 mi SE 4.6 mph - N/A   Clear
10:53 AM 81.0 °F 82.2 °F 63.0 °F 54% 29.90 in 10.0 mi ESE 5.8 mph - N/A   Clear
11:53 AM 86.0 °F 86.3 °F 62.1 °F 44% 29.89 in 10.0 mi South 5.8 mph - N/A   Clear
12:53 PM 89.1 °F 88.2 °F 59.0 °F 36% 29.88 in 10.0 mi SW 3.5 mph - N/A   Clear
1:53 PM 93.0 °F 91.7 °F 57.0 °F 30% 29.87 in 10.0 mi West 6.9 mph - N/A   Clear
2:53 PM 93.9 °F 92.6 °F 57.0 °F 29% 29.86 in 10.0 mi SW 3.5 mph - N/A   Clear
3:53 PM 93.0 °F 91.1 °F 55.0 °F 28% 29.85 in 10.0 mi Calm Calm - N/A   Clear
4:53 PM 93.9 °F 92.2 °F 55.9 °F 28% 29.85 in 10.0 mi East 4.6 mph - N/A   Clear
5:53 PM 91.9 °F 92.9 °F 63.0 °F 38% 29.84 in 10.0 mi East 8.1 mph - N/A   Clear
6:53 PM 90.0 °F 92.4 °F 66.0 °F 45% 29.83 in 10.0 mi ESE 8.1 mph - N/A   Clear
7:53 PM 86.0 °F 90.1 °F 69.1 °F 57% 29.82 in 10.0 mi East 8.1 mph - N/A   Clear
8:53 PM 80.1 °F 82.9 °F 69.1 °F 69% 29.82 in 10.0 mi ESE 6.9 mph - N/A   Clear
9:53 PM 73.9 °F - 68.0 °F 82% 29.83 in 10.0 mi ESE 6.9 mph - N/A   Clear
10:53 PM 73.0 °F - 69.1 °F 87% 29.86 in 10.0 mi East 5.8 mph - N/A   Clear
11:53 PM 71.1 °F - 69.1 °F 93% 29.86 in 8.0 mi East 6.9 mph - N/A   Clear